Погода в Крещенке

Погода в Крещенке : погода сейчас, прогноз погоды и архив. Всё, что Вы хотите узнать о погоде в Крещенке!

Хотите узнать прогноз погоды в Крещенке? Тогда Вам сюда: Погода в Крещенке

Поиск расширенной информации на нашем сайте:

Другие новости

Новости СМИ2

Главная страница сайта

Новости сайта

03.07.2017

Напоминаем, что на нашем специализированном сайте Метеоцентр.Азия вы можете получить высокодетализированные автоматические прогнозы погоды по пунктам России, СНГ и мира в авиационном формате (включающие направление и скорость ветра, видимость, явления погоды, количество и форму облачности, нижнюю и верхнюю границу облачности).

Рекомендуем: Подключение к Таксик приложения на google play Таксик.

Погода в Крещенке - сегодня

Время (UTC), дата Ветер
(°,м/с) 
Видим.   Явления Облачность Т
(°С)
Тd
(°С)
f(%) Тe
(°С)
Pmin
(гПа)
dP
(гПа)
Po
(мм)
O2
(г/м3)
Тmin Tmax R s Состояние
почвы
21 23.07.17 тихо ()   20000 м  местами туман поземный  3/0 верхняя 
[Ci sp]
+13.3 +12.5 95 +18  1008.8  -0.8  745  284           
00 24.07.17 110 (В) 0500 м  туман  4/0 верхняя 
[Ci sp]
+13.7 +13 96 +21  1008.9  0.1  745  283  +11.9        сухая 
03 24.07.17 160 (Ю) 20000 м  {туман}  6/0 средняя, верхняя 
[Ac trans|Ci fib]
+22.9 +17.1 70 +36  1007.2  -1.1  744  273           
09 24.07.17 150 (ЮВ) 20000 м  в посл. час ливневой дождь  10/10 300 м кучево-дожд. 
[Cb cap]
+23 +17.5 71 +37  1005.2  -1.2  743  272           
12 24.07.17 180 (Ю) 10 км  слаб. ливневой дождь  10/10 300 м кучево-дожд. 
[Cb cap]
+20.6 +17.6 83 +34  1004.3  -1  742  274    +25.1  0.3     
18 24.07.17 080 (В) 20000 м  в посл. час гроза{ливн. осадки}  10/10 300 м кучево-дожд. 
[Cb cap]
+18.6 +16.6 88 +32  999.7  739  275           
21 24.07.17 140 (ЮВ) 5-10{10}  20000 м    9/9 300 м кучево-дожд. 
[Cb cap]
+19.2 +16.6 85 +32  997  -2.6  737  274           
00 25.07.17 220 (ЮЗ) 2{10}  20000 м    10/10 300 м кучево-дожд. 
[Cb cap]
+17.3 +15.7 90 +28  997.4  0.3  737  276        влажная 
03 25.07.17 260 (З) 4000 м  дымка  10/10 300 м 
[St]
+17 +15.9 93 +29  998  0.6  737  276  +16.8         
06 25.07.17 280 (З) 20000 м  {морось}  9/9 300 м кучево-дожд. 
[Cb cap]
+22.8 +16.6 68 +35  998.6  0.9  738  271           
09 25.07.17 290 (З) 20000 м  {ливн. осадки}  10/10 300 м кучево-дожд. 
[Cb cap]
+19.6 +17.3 87 +33  1000.8  740  274           
12 25.07.17 290 (З) 20000 м  {ливн. осадки}  9/9 300 м кучево-дожд. 
[Cb cap]
+20.1 +17 82 +33  1001.8  740  274    +22.9  0.4     
15 25.07.17 270 (З) 20000 м    9/9 300 м кучево-дожд. 
[Cb cap]
+19.2 +16.8 86 +32  1002.4  0.5  741  275           
18 25.07.17 280 (З) 20000 м    3/0 верхняя 
[Ci sp]
+16.2 +15.1 93 +26  1003.1  0.6  741  279           
21 25.07.17 280 (З) 20000 м  местами туман поземный  ясно 
+15.4 +14.5 94 +24  1003.6  0.4  741  280           
00 26.07.17 280 (З) 4000 м  дымка  4/3 600 м верхняя 
[Sc|Ci sp]
+15.6 +14.7 94 +24  1004.2  0.6  742  280  +14.6        влажная 
03 26.07.17 260 (З) 20000 м    9/9 300 м кучево-дожд. 
[Cb cap]
+19.1 +17.1 88 +34  1004.5  0.5  742  276           
06 26.07.17 270 (З) 20000 м  {ливн. осадки}  8/8 300 м кучево-дожд. 
[Cb cap]
+23.8 +16.8 65 +36  1004.5  0.2  742  271           
09 26.07.17 270 (З) 20000 м    6/4 300 м кучево-дожд., верхняя 
[Cb cap|Ci sp]
+25.2 +17.4 62 +39  1003.8  -0.6  742  270           
12 26.07.17 240 (ЮЗ) 20000 м    6/6 300 м кучево-дожд. 
[Cb cap]
+25.8 +17.5 60 +39  1003.5  -0.2  742  269    +26  0.0     
15 26.07.17 080 (В) 20000 м    ясно 
+20.5 +17.7 84 +35  1004.3  0.5  742  274           
18 26.07.17 тихо ()   20000 м  местами туман поземный  ясно 
+16.4 +15.5 94 +26  1004.8  0.3  742  279           
21 26.07.17 тихо ()   20000 м  местами туман поземный  ясно 
+14.5 +13.7 95 +21  1004.8  -0.1  742  281           
00 27.07.17 130 (ЮВ) 4000 м  дымка  8/0 верхняя 
[Ci sp]
+15.4 +14.7 96 +25  1004.8  742  280  +13.7        влажная 
03 27.07.17 080 (В) 20000 м    10/8 300 м кучево-дожд., верхняя 
[Cb cap|Ci fib]
+21 +17.9 82 +35  1004.2  -0.3  742  274           
Время (UTC), дата Ветер
(°,м/с) 
Видим.   Явления Облачность Т
(°С)
Тd
(°С)
f(%) Тe
(°С)
Pmin
(гПа)
dP
(гПа)
Po
(мм)
O2
(г/м3)
Тmin Tmax R s Состояние
почвы

Для получения пояснительной информации подведите курсор к названию столбца.

ПОГОДА в Крещенке - архив

Всё, что Вы хотите узнать о погоде в Крещенке - удобно и подробно!

Выберите нужную дату (начиная с 1 января 2015* года) и нажмите кнопку "Найти".
Будут отображены архивные сводки погоды по пункту Крещенка, начиная с указанной даты.


Отображать данные в формате CSV (для использования в таблицах Excel)


Внимание! Наш архив погоды предназначен исключительно для личного некоммерческого использования в познавательных целях. Если Вам необходимы официальные справки о состоянии погоды (для производственных, юридических, коммерческих и т.п. целей), обращайтесь в органы Росгидромета.

*Примечание: данная дата относится к архиву по метеостанциям СССР (Россия, СНГ, Балтия).
Архив по метеостанциям Зарубежной Европы и Азии (кроме Китая) хранится 10 дней, по другим регионам земного шара (Китай, Африка, Америка, Австралия, Океания) - 1 день.

Крещенка - район местоположения метеостанции


Название, широта, долгота, высота метеостанции:
Крещенка 55.9°ш. 80°д. 129 м над ур. моря [Российская Федерация]

Дополнительная информация

В oтличие oт бoльшинства пoгoдных сайтoв мы публикуем пoдрoбную метеoинфoрмацию в детальнoм прoфессиoнальнoм фoрмате.

Характеристики температуры и влажнoсти вoздуха измеряются на высoте 2 м в тени вдали oт зданий и деревьев.
Скoрoсть ветра измеряется на высoте 10 м (на урoвне рoста челoвека скoрoсть ветра ниже в 1.5-2 раза). Если метеoстанция нахoдится в гoрoде или в лесу, тo скoрoсть ветра занижена на 2-4 м/с пo сравнению с oткрытым местoм. Скoрoсть ветра над акватoриями крупных рек и oзёр, а также на вершинах хoлмoв на 2-5 м/с выше, чем в oбычных услoвиях.
Атмoсфернoе давление в разных тoчках местнoсти мoжет значительнo oтличаться oт давления на метеoстанции, в зависимoсти oт услoвий рельефа (при пoдъёме на 10 м давление пoнижается примернo на 1 мм рт.ст.).